Regional Weather Roundup
Issued by NWS Newport/Morehead, NC

Current Version | Previous Version | Text Only | Print | Product List | Glossary Off
Versions: 1 2 3 4 5 6 7 8 9 10 11 12 13 14 15 16 17 18 19 20 21 22 23 24 25 26 27 28 29 30 31 32 33 34 35 36 37 38 39 40 41 42 43 44 45 46 47 48 49 50
000 ASUS42 KMHX 031924 RWRMHX WEATHER ROUNDUP FOR EASTERN NORTH CAROLINA NATIONAL WEATHER SERVICE NEWPORT/MOREHEAD CITY NC 200 PM EST TUE MAR 03 2015 NOTE: "FAIR" INDICATES FEW OR NO CLOUDS BELOW 12,000 FEET WITH NO SIGNIFICANT WEATHER AND/OR OBSTRUCTIONS TO VISIBILITY NCZ015>017-031-032-045>047-102-103-032000- NORTH COAST CITY SKY/WX TMP DP RH WIND PRES REMARKS EDENTON CLOUDY 42 33 70 E7 30.28F ELIZABETH CITY CLOUDY 42 32 67 E5 30.29F KITTY HAWK CLOUDY 40 33 77 CALM 30.28F MANTEO CLOUDY 41 34 75 N6 30.30F $$ NCZ045>047-081-094-103-104-032000- CENTRAL COAST CITY SKY/WX TMP DP RH WIND PRES REMARKS FRISCO CLOUDY 46 39 76 VRB5 30.27F SWANQUARTER N/A 46 N/A N/A NE5 30.24F $$ NCZ095-097-098-100-101-032000- SOUTHERN COAST CITY SKY/WX TMP DP RH WIND PRES REMARKS BEAUFORT CLOUDY 47 38 71 NE10 30.27F CEDAR ISLAND N/A 43 N/A N/A NE3 30.30F JACKSONVILLE CLOUDY 45 39 79 NE6 30.26F PINEY ISLAND N/A N/A N/A N/A MISG 30.28F WILMINGTON LGT RAIN 46 38 73 E8 30.26F $$ NCZ011>013-027>030-043-044-078>080-089-090>093-098-032000- COASTAL PLAIN CITY SKY/WX TMP DP RH WIND PRES REMARKS AHOSKIE CLOUDY 40 30 66 E3 30.28F CLINTON CLOUDY 38 38 98 CALM 30.26F FOG ELIZABETHTOWN CLOUDY 42 36 77 E3 30.24F GOLDSBORO MIX PCPN 39 39 100 E7 30.24F FOG GREENVILLE CLOUDY 39 34 81 E5 30.28F HAVELOCK DRIZZLE 46 35 65 E8 30.29F KENANSVILLE CLOUDY 39 38 97 CALM 30.27F FOG KINSTON PTSUNNY 41 34 75 E3 30.29F NEW BERN CLOUDY 46 34 62 E7 30.29F RICHLANDS CLOUDY 43 37 81 NE6 30.26F ROCKY MOUNT CLOUDY 41 28 60 CALM 30.28F WASHINGTON PTSUNNY 41 35 80 E5 30.27F WHITEVILLE CLOUDY 46 37 70 CALM 30.24F $$ AMZ130-135-150-152-154-156-158-170-250-252-270-ANZ085-086-088-633-658-670-032000- MARINE OBSERVATIONS STATION/POSITION TIME TEMP WIND PRES WAVE SWELL AIR SEA DIR/SP/G HT/PER HT/PER (UTC) (F) (DEG/KT/KT) (MB) (FT/S) (FT/S) CHESAPEAKE LIGHT 1900 35 70/ 5/ 5 1026.3 64 E VA BEACH 1850 50 62 130/ 6/ 10 1025.4 3/ 6 3/ 6 DUCK 1900 35 35 350/ 8/ 8 1024.9 2 E DUCK 1811 35 N/A 3/ 6 10 NE DUCK 1822 37 N/A 4/ 6 OREGON INLET 1900 40 39 350/ 7/ 10 1025.7 HATTERAS CG 1900 43 43 40/ 7/ 9 1025.6 CAPE LOOKOUT 1900 46 30/ 13/ 15 1024.6 BEAUFORT LAB 1900 47 44 30/ 6/ 10 1023.9 27 SE WRIGHTSVLE NOT AVBL 5 SE WRIGHTSVLE NOT AVBL 225 S CAPE HAT 1850 65 72 110/ 14/ 17 1025.2 7/ 8 5/ 8 41 SE CHARLESTON 1850 70 68 160/ 6/ 8 1021.6 6/ 7 5/ 7 $$

USA.gov is the U.S. government's official web portal to all federal, state and local government web resources and services.